Weather History for KMFI - August, 2013

Change the Weather History Date:

Wednesday, August 28, 2013

  Actual Average Record
Temperature  
Mean Temperature 78 °F -  
Max Temperature 86 °F 78 °F 95 °F (1984)
Min Temperature 69 °F 55 °F 33 °F (1915)
Cooling Degree Days 12    
Growing Degree Days 28 (Base 50)    
Moisture  
Dew Point 69 °F    
Average Humidity 79    
Maximum Humidity 100    
Minimum Humidity 51    
Precipitation  
Precipitation 0.00 in - - ()
Sea Level Pressure  
Sea Level Pressure 30.00 in    
Wind  
Wind Speed 5 mph (East)    
Max Wind Speed 10 mph    
Max Gust Speed -    
Visibility 8 miles    
Events      
Averages and records for this station are not official NWS values.
T = Trace of Precipitation, MM = Missing Value Source: NWS Daily Summary

Daily Weather History Graph

Daily Weather History Graph

Search for Another Location

Airport or City:

Trip Planner

Search our weather history database for the weather conditions in past years. The results will help you decide how hot, cold, wet, or windy it might be!

Date:

Astronomy

Aug. 28, 2013 Rise Set
Actual Time 6:18 AM CDT 7:44 PM CDT
Civil Twilight 5:48 AM CDT 8:14 PM CDT
Nautical Twilight 5:11 AM CDT 8:50 PM CDT
Astronomical Twilight 4:32 AM CDT 9:29 PM CDT
Moon No Moon Rise 2:28 PM CDT (8/28)
Length of Visible Light 14h 25m
Length of Day
13h 25m
Waning Gibbous, 47% of the Moon is Illuminated
Aug 28
Waning Gibbous
Sep 5
New
Sep 12
First Quarter
Sep 19
Full
Sep 26
Last Quarter

Hourly Weather History & Observations

Time (CDT) Temp. Heat Index Dew Point Humidity Pressure Visibility Wind Dir Wind Speed Gust Speed Precip Events Conditions
12:54 AM 73.0 °F - 72.0 °F 96% 29.89 in 4.0 mi Calm Calm - N/A   Partly Cloudy
1:14 AM 73.4 °F - 71.6 °F 94% 29.92 in 5.0 mi ENE 3.5 mph - N/A   Mostly Cloudy
1:54 AM 73.0 °F - 72.0 °F 96% 29.90 in 5.0 mi NE 4.6 mph - N/A   Mostly Cloudy
2:54 AM 73.0 °F - 72.0 °F 96% 29.90 in 5.0 mi NE 4.6 mph - N/A   Overcast
3:54 AM 72.0 °F - 71.1 °F 97% 29.91 in 5.0 mi NE 5.8 mph - N/A   Overcast
4:54 AM 72.0 °F - 70.0 °F 93% 29.93 in 7.0 mi ENE 8.1 mph - N/A   Overcast
5:54 AM 71.1 °F - 69.1 °F 93% 29.96 in 6.0 mi ENE 10.4 mph - N/A   Overcast
6:54 AM 71.1 °F - 69.1 °F 93% 29.98 in 6.0 mi East 9.2 mph - N/A   Overcast
7:08 AM 71.6 °F - 69.8 °F 94% 30.01 in 5.0 mi East 6.9 mph - N/A   Overcast
7:32 AM 71.6 °F - 69.8 °F 94% 30.02 in 2.0 mi East 8.1 mph - N/A   Overcast
7:41 AM 69.8 °F - 69.8 °F 100% 30.02 in 1.8 mi East 6.9 mph - N/A   Overcast
7:50 AM 71.6 °F - 69.8 °F 94% 30.02 in 3.0 mi East 6.9 mph - N/A   Overcast
7:54 AM 71.1 °F - 70.0 °F 96% 29.99 in 3.0 mi ESE 8.1 mph - N/A   Overcast
8:25 AM 71.6 °F - 69.8 °F 94% 30.02 in 8.0 mi East 8.1 mph - N/A   Overcast
8:54 AM 72.0 °F - 69.1 °F 91% 30.01 in 9.0 mi ESE 4.6 mph - N/A   Overcast
9:09 AM 75.2 °F - 69.8 °F 83% 30.03 in 10.0 mi ENE 5.8 mph - N/A   Overcast
9:54 AM 75.9 °F - 68.0 °F 76% 30.02 in 10.0 mi ESE 8.1 mph - N/A   Overcast
10:54 AM 78.1 °F - 66.9 °F 68% 30.02 in 10.0 mi East 5.8 mph - N/A   Mostly Cloudy
11:04 AM 78.8 °F - 68.0 °F 69% 30.04 in 10.0 mi Variable 4.6 mph - N/A   Scattered Clouds
11:54 AM 81.0 °F 83.8 °F 68.0 °F 65% 30.03 in 10.0 mi Variable 4.6 mph - N/A   Partly Cloudy
12:54 PM 82.9 °F 85.4 °F 66.9 °F 58% 30.02 in 10.0 mi Variable 3.5 mph - N/A   Mostly Cloudy
1:15 PM 84.2 °F 86.6 °F 66.2 °F 55% 30.05 in 10.0 mi East 6.9 mph - N/A   Scattered Clouds
1:54 PM 82.9 °F 85.4 °F 66.9 °F 58% 30.02 in 10.0 mi Variable 3.5 mph - N/A   Clear
2:54 PM 82.9 °F 85.0 °F 66.0 °F 56% 30.01 in 10.0 mi Calm Calm - N/A   Clear
3:54 PM 86.0 °F 88.2 °F 66.0 °F 51% 30.01 in 10.0 mi East 6.9 mph - N/A   Clear
4:54 PM 84.9 °F 86.6 °F 64.9 °F 51% 30.01 in 10.0 mi ESE 5.8 mph - N/A   Clear
5:54 PM 82.9 °F 85.4 °F 66.9 °F 58% 30.02 in 10.0 mi East 5.8 mph - N/A   Clear
6:54 PM 81.0 °F 83.3 °F 66.9 °F 62% 30.03 in 10.0 mi East 5.8 mph - N/A   Clear
7:54 PM 77.0 °F - 68.0 °F 74% 30.03 in 10.0 mi SE 4.6 mph - N/A   Clear
8:54 PM 75.0 °F - 66.9 °F 76% 30.04 in 10.0 mi SSE 4.6 mph - N/A   Clear
9:54 PM 75.0 °F - 66.9 °F 76% 30.03 in 10.0 mi SE 6.9 mph - N/A   Clear
10:54 PM 75.0 °F - 66.9 °F 76% 30.04 in 10.0 mi SSE 4.6 mph - N/A   Clear
11:54 PM 73.0 °F - 66.9 °F 81% 30.05 in 10.0 mi Calm Calm - N/A   Clear